Stornoway, United Kingdom

1:59 AM GMT on December 12, 2017 (GMT +0000)
Stornoway

Weather History for EGPO - March, 2013

Change the Weather History Date:

Wednesday, March 27, 2013

  Actual Average Record
Temperature  
Mean Temperature 32 °F -  
Max Temperature 42 °F 49 °F 60 °F (2012)
Min Temperature 21 °F 38 °F 21 °F (2013)
Degree Days  
Heating Degree Days 34    
Moisture  
Dew Point 24 °F    
Average Humidity 62    
Maximum Humidity 93    
Minimum Humidity 34    
Precipitation  
Precipitation 0.00 in 0.09 in - ()
Sea Level Pressure  
Sea Level Pressure 30.20 in    
Wind  
Wind Speed 6 mph ()    
Max Wind Speed 12 mph    
Max Gust Speed -    
Visibility 6.5 miles    
Events Rain    
Averages and records for this station are not official NWS values.
T = Trace of Precipitation, MM = Missing Value Source: Averaged Metar Reports

Daily Weather History Graph

Daily Weather History Graph

Search for Another Location

Airport or City:

Trip Planner

Search our weather history database for the weather conditions in past years. The results will help you decide how hot, cold, wet, or windy it might be!

Date:

Astronomy

Mar. 27, 2013 Rise Set
Actual Time 6:06 AM GMT 6:55 PM GMT
Civil Twilight 5:27 AM GMT 7:35 PM GMT
Nautical Twilight 4:38 AM GMT 8:24 PM GMT
Astronomical Twilight 3:44 AM GMT 9:18 PM GMT
Moon 7:39 PM GMT (3/27) 5:43 AM GMT (3/27)
Length of Visible Light 14h 08m
Length of Day
12h 48m
Full, 100% of the Moon is Illuminated
Mar 27
Full
Apr 3
Last Quarter
Apr 10
New
Apr 18
First Quarter
Apr 25
Full

Hourly Weather History & Observations

Time (GMT) Temp. Windchill Dew Point Humidity Pressure Visibility Wind Dir Wind Speed Gust Speed Precip Events Conditions
12:20 AM 33.8 °F 25.8 °F 24.8 °F 70% 30.24 in 6.2 mi SE 10.4 mph - N/A   Unknown
12:50 AM 33.8 °F 25.3 °F 24.8 °F 70% 30.24 in 6.2 mi SE 11.5 mph - N/A   Unknown
1:20 AM 32.0 °F 23.6 °F 23.0 °F 69% 30.24 in 6.2 mi SE 10.4 mph - N/A   Unknown
1:50 AM 32.0 °F 25.6 °F 23.0 °F 69% 30.24 in 6.2 mi SE 6.9 mph - N/A   Unknown
2:20 AM 28.4 °F 21.2 °F 17.6 °F 64% 30.21 in 6.2 mi SE 6.9 mph - N/A   Unknown
2:50 AM 32 °F - 24 °F 61% 30.22 in 31 mi SE 6.9 mph - -  
2:50 AM 24.8 °F 16.9 °F 19.4 °F 80% 30.21 in 6.2 mi SE 6.9 mph - N/A   Unknown
3:20 AM 23.0 °F - 17.6 °F 80% 30.21 in 6.2 mi Variable 2.3 mph - N/A   Unknown
3:50 AM 23.0 °F - 17.6 °F 80% 30.21 in 6.2 mi WNW 2.3 mph - N/A   Unknown
4:20 AM 21.2 °F - 17.6 °F 86% 30.21 in 6.2 mi NW 2.3 mph - N/A   Unknown
4:50 AM 23.0 °F - 19.4 °F 86% 30.21 in 6.2 mi Calm Calm - N/A   Unknown
5:20 AM 24.8 °F - 21.2 °F 86% 30.21 in 6.2 mi Calm Calm - N/A   Unknown
5:50 AM 30 °F - 26 °F 81% 30.21 in 28 mi ENE 2.3 mph - -  
5:50 AM 24.8 °F - 21.2 °F 86% 30.21 in 6.2 mi NNW 2.3 mph - N/A   Unknown
6:20 AM 26.6 °F - 21.2 °F 80% 30.21 in 6.2 mi North 2.3 mph - N/A   Partly Cloudy
6:50 AM 28.4 °F - 26.6 °F 93% 30.21 in 6.2 mi Calm Calm - N/A   Partly Cloudy
7:20 AM 30.2 °F - 26.6 °F 86% 30.21 in 6.2 mi Variable 2.3 mph - N/A   Partly Cloudy
7:50 AM 35.6 °F 30.7 °F 28.4 °F 75% 30.21 in 6.2 mi SE 5.8 mph - N/A   Scattered Clouds
8:20 AM 35.6 °F 29.9 °F 28.4 °F 75% 30.21 in 6.2 mi SE 6.9 mph - N/A   Scattered Clouds
8:50 AM 39 °F - 26 °F 47% 30.21 in 31 mi SE 9.2 mph - -   Overcast
8:50 AM 39.2 °F 33.6 °F 26.6 °F 61% 30.21 in 6.2 mi SE 8.1 mph - N/A   Scattered Clouds
9:20 AM 39.2 °F 33.6 °F 24.8 °F 56% 30.21 in 6.2 mi SE 8.1 mph - N/A   Partly Cloudy
9:50 AM 41.0 °F 35.8 °F 24.8 °F 53% 30.21 in 6.2 mi ESE 8.1 mph - N/A   Partly Cloudy
10:20 AM 41.0 °F 36.4 °F 24.8 °F 53% 30.21 in 6.2 mi ESE 6.9 mph - N/A   Partly Cloudy
10:50 AM 42.8 °F 38.6 °F 24.8 °F 49% 30.21 in 6.2 mi ESE 6.9 mph - N/A   Partly Cloudy
11:20 AM 42.8 °F 38.6 °F 23.0 °F 46% 30.21 in 6.2 mi East 6.9 mph - N/A   Partly Cloudy
11:50 AM 42 °F - 23 °F 34% 30.20 in 19 mi ENE 8.1 mph - - Rain Rain
11:50 AM 42.8 °F 38.6 °F 23.0 °F 46% 30.21 in 6.2 mi ESE 6.9 mph - N/A   Partly Cloudy
12:20 PM 42.8 °F 38.0 °F 23.0 °F 46% 30.21 in 6.2 mi ESE 8.1 mph - N/A   Partly Cloudy
12:50 PM 42.8 °F 38.0 °F 21.2 °F 42% 30.18 in 6.2 mi ESE 8.1 mph - N/A   Partly Cloudy
1:20 PM 44.6 °F 40.2 °F 24.8 °F 46% 30.18 in 6.2 mi ESE 8.1 mph - N/A   Scattered Clouds
1:50 PM 44.6 °F 39.7 °F 24.8 °F 46% 30.18 in 6.2 mi SSE 9.2 mph - N/A   Scattered Clouds
2:20 PM 44.6 °F 40.7 °F 24.8 °F 46% 30.18 in 6.2 mi SSE 6.9 mph - N/A   Scattered Clouds
2:50 PM 42 °F - 24 °F 35% 30.19 in 25 mi NE 9.2 mph - - Rain Rain
2:50 PM 42.8 °F 37.5 °F 24.8 °F 49% 30.18 in 6.2 mi NE 9.2 mph - N/A   Scattered Clouds
3:20 PM 41.0 °F 35.2 °F 23.0 °F 49% 30.18 in 6.2 mi NE 9.2 mph - N/A   Scattered Clouds
3:50 PM 41.0 °F 35.2 °F 21.2 °F 45% 30.18 in 6.2 mi NE 9.2 mph - N/A   Scattered Clouds
4:20 PM 41.0 °F 36.4 °F 19.4 °F 42% 30.18 in 6.2 mi NE 6.9 mph - N/A   Partly Cloudy
4:50 PM 41.0 °F 35.8 °F 21.2 °F 45% 30.18 in 6.2 mi NE 8.1 mph - N/A   Partly Cloudy
5:20 PM 41.0 °F 35.8 °F 21.2 °F 45% 30.18 in 6.2 mi NE 8.1 mph - N/A   Partly Cloudy
5:50 PM 38 °F - 23 °F 42% 30.18 in 31 mi NE 8.1 mph - - Rain Light Rain
5:50 PM 39.2 °F 34.2 °F 23.0 °F 52% 30.18 in 6.2 mi NE 6.9 mph - N/A   Partly Cloudy
6:20 PM 39.2 °F 33.6 °F 24.8 °F 56% 30.18 in 6.2 mi NE 8.1 mph - N/A   Partly Cloudy
6:50 PM 39.2 °F 33.6 °F 24.8 °F 56% 30.18 in 6.2 mi ENE 8.1 mph - N/A   Partly Cloudy
7:20 PM 39.2 °F 33.0 °F 26.6 °F 61% 30.18 in 6.2 mi ENE 9.2 mph - N/A   Scattered Clouds
7:50 PM 37.4 °F 30.8 °F 28.4 °F 70% 30.18 in 6.2 mi NE 9.2 mph - N/A   Partly Cloudy
8:20 PM 37.4 °F 32.1 °F 26.6 °F 65% 30.18 in 6.2 mi East 6.9 mph - N/A   Unknown
8:50 PM 35 °F - 25 °F 56% 30.19 in 31 mi East 10.4 mph - -   Scattered Clouds
8:50 PM 37.4 °F 32.1 °F 26.6 °F 65% 30.18 in 6.2 mi East 6.9 mph - N/A   Unknown
9:20 PM 35.6 °F 29.9 °F 24.8 °F 65% 30.18 in 6.2 mi East 6.9 mph - N/A   Unknown
9:50 PM 35.6 °F 28.6 °F 26.6 °F 70% 30.18 in 6.2 mi ESE 9.2 mph - N/A   Partly Cloudy
10:20 PM 35.6 °F 29.9 °F 26.6 °F 70% 30.18 in 6.2 mi East 6.9 mph - N/A   Unknown
10:50 PM 35.6 °F 29.9 °F 26.6 °F 70% 30.18 in 6.2 mi East 6.9 mph - N/A   Unknown
11:20 PM 33.8 °F 27.7 °F 26.6 °F 75% 30.18 in 6.2 mi ESE 6.9 mph - N/A   Unknown
11:50 PM 33 °F - 26 °F 67% 30.19 in 31 mi ESE 10.4 mph - -  
11:50 PM 33.8 °F 27.0 °F 26.6 °F 75% 30.18 in 6.2 mi ESE 8.1 mph - N/A   Unknown